Location: Sobotiste
(48.7170°N, 17.4000°E)
Time: 22:17:08
(UTC+02:00)

OTV 5 (USA 277) - Visible Passes

Search period start: 15 October 2018 00:00
Search period end: 25 October 2018 00:00
Orbit: 387 x 394 km, 54.5° (Epoch: 08 September)

Date Brightness Start Highest point End Pass type
(mag) Time Alt. Az. Time Alt. Az. Time Alt. Az.
15 Oct ? 05:19:58 80° WSW 05:20:02 81° SSW 05:23:14 10° SE visible
16 Oct ? 04:26:09 15° ESE 04:26:09 15° ESE 04:26:46 10° ESE visible
16 Oct ? 05:58:34 22° WSW 05:59:21 25° SW 06:02:00 10° SSE visible
17 Oct ? 05:04:52 21° SSE 05:04:52 21° SSE 05:06:11 10° SE visible
18 Oct ? 05:43:44 11° SSW 05:43:44 11° SSW 05:44:05 10° SSW visible
24 Oct ? 19:51:52 10° SSW 19:52:43 16° SSW 19:52:43 16° SSW visible
